Tracking 18942 objects as of 16-Jan-2018
HD Live streaming from Space Station
objects crossing your sky now

FLOCK 3P 65

Track FLOCK 3P 65 now!
10-day predictions
FLOCK 3P 65 is classified as:


NORAD ID: 42028
Int'l Code: 2017-008CJ
Perigee: 495.7 km
Apogee: 507.3 km
Inclination: 97.5 °
Period: 94.5 minutes
Semi major axis: 6872 km
RCS: Unknown
Launch date: February 15, 2017
Source: United States (US)
Launch site: SRIHARIKOTA (SRI)
aabbcc
Your satellite tracking list
Your tracking list is empty




NASA's NSSDC Master Catalog

Two Line Element Set (TLE):
1 42028U 17008CJ  18015.73351698 +.00001087 +00000-0 +48101-4 0  9993
2 42028 097.4712 081.4559 0008444 174.2143 185.9193 15.23808916050747
Source of the keplerian elements: AFSPC